Weather History for Richmond Hanover County, VA

Change the Weather History Date:

Saturday, August 3, 2013

  Actual Average Record
Temperature  
Mean Temperature 75 °F -  
Max Temperature 84 °F 87 °F 102 °F (2006)
Min Temperature 66 °F 66 °F 51 °F (1959)
Cooling Degree Days 10    
Growing Degree Days 25 (Base 50)    
Moisture  
Dew Point 66 °F    
Average Humidity 79    
Maximum Humidity 97    
Minimum Humidity 49    
Precipitation  
Precipitation 0.00 in - - ()
Sea Level Pressure  
Sea Level Pressure 29.97 in    
Wind  
Wind Speed 1 mph (West)    
Max Wind Speed 6 mph    
Max Gust Speed -    
Visibility 8 miles    
Events      
Averages and records for this station are not official NWS values.
T = Trace of Precipitation, MM = Missing Value Source: NWS Daily Summary

Daily Weather History Graph

Daily Weather History Graph

Search for Another Location

Airport:

Trip Planner

Search our weather history database for the weather conditions in past years. The results will help you decide how hot, cold, wet, or windy it might be!

Date:

Astronomy

Aug. 03, 2013 Rise Set
Actual Time 6:15 AM EDT 8:15 PM EDT
Civil Twilight 5:46 AM EDT 8:44 PM EDT
Nautical Twilight 5:11 AM EDT 9:19 PM EDT
Astronomical Twilight 4:33 AM EDT 9:57 PM EDT
Moon 3:23 AM EDT (8/3) 5:56 PM EDT (8/3)
Length of Visible Light 14h 58m
Length of Day
14h 00m
Waning Crescent, 9% of the Moon is Illuminated
Aug 3
Waning Crescent
Aug 6
New
Aug 14
First Quarter
Aug 20
Full
Aug 28
Last Quarter

Hourly Weather History & Observations

Time (EDT) Temp. Heat Index Dew Point Humidity Pressure Visibility Wind Dir Wind Speed Gust Speed Precip Events Conditions
12:54 AM 66.0 °F - 64.9 °F 96% 29.99 in 7.0 mi Calm Calm - N/A   Clear
1:54 AM 68.0 °F - 64.9 °F 90% 29.99 in 10.0 mi Calm Calm - N/A   Clear
2:54 AM 70.0 °F - 64.9 °F 84% 29.98 in 10.0 mi Calm Calm - N/A   Clear
3:54 AM 66.9 °F - 66.0 °F 97% 29.98 in 6.0 mi Calm Calm - N/A   Clear
4:54 AM 66.0 °F - 64.9 °F 96% 29.98 in 6.0 mi Calm Calm - N/A   Clear
5:54 AM 66.0 °F - 64.9 °F 96% 29.98 in 6.0 mi Calm Calm - N/A   Clear
6:54 AM 68.0 °F - 66.0 °F 93% 29.99 in 7.0 mi SSW 3.5 mph - N/A   Clear
7:54 AM 72.0 °F - 66.9 °F 84% 29.99 in 9.0 mi SSW 4.6 mph - N/A   Clear
8:54 AM 73.9 °F - 66.0 °F 76% 29.99 in 10.0 mi SSW 3.5 mph - N/A   Clear
9:54 AM 77.0 °F - 64.9 °F 66% 29.99 in 10.0 mi SW 3.5 mph - N/A   Clear
10:54 AM 79.0 °F - 64.9 °F 62% 29.99 in 10.0 mi WSW 3.5 mph - N/A   Clear
11:54 AM 81.0 °F 82.5 °F 64.0 °F 56% 29.98 in 10.0 mi WSW 4.6 mph - N/A   Clear
12:54 PM 84.9 °F 86.1 °F 64.0 °F 49% 29.96 in 10.0 mi NW 5.8 mph - N/A   Clear
1:54 PM 82.9 °F 84.4 °F 64.0 °F 53% 29.95 in 10.0 mi NW 5.8 mph - N/A   Unknown
2:54 PM 82.0 °F 83.4 °F 64.0 °F 54% 29.95 in 10.0 mi NNW 3.5 mph - N/A   Clear
3:54 PM 82.9 °F 85.0 °F 66.0 °F 56% 29.94 in 10.0 mi Calm Calm - N/A   Partly Cloudy
4:54 PM 80.1 °F 82.3 °F 66.9 °F 64% 29.95 in 10.0 mi NW 3.5 mph - N/A   Mostly Cloudy
5:54 PM 77.0 °F - 69.1 °F 76% 29.95 in 10.0 mi Calm Calm - N/A   Overcast
6:54 PM 77.0 °F - 70.0 °F 79% 29.93 in 10.0 mi Calm Calm - N/A   Scattered Clouds
7:54 PM 73.9 °F - 71.1 °F 91% 29.94 in 4.0 mi Calm Calm - N/A   Overcast
8:54 PM 73.0 °F - 70.0 °F 90% 29.95 in 9.0 mi Calm Calm - N/A   Overcast
9:54 PM 71.1 °F - 69.1 °F 93% 29.96 in 8.0 mi Calm Calm - N/A   Mostly Cloudy
10:54 PM 71.1 °F - 69.1 °F 93% 29.96 in 7.0 mi Calm Calm - N/A   Mostly Cloudy
11:54 PM 70.0 °F - 69.1 °F 97% 29.95 in 5.0 mi Calm Calm - N/A   Partly Cloudy